Temp
93 93 91 90 90 91 92 92 93 91 89 90 90 89 86 84 80 79 81 83 88 92 97 94 90 94 93 91 95 93 92 91 90 93 91 91 90 82 74 74 74 73 73 73 73 74 74 75 75 75 75 76 77 77 77 76 76 76 76 76 76 76 76 75 74 74 74 74 73 73 73 73 74 74
91 92 93 93 92 92 92 92 92 91 89 89 90 89 89 87 82 81 79 81 87 89 95 98 93 90 91 92 92 94 93 85 89 92 92 92 93 82 75 74 73 73 73 72 72 73 73 73 74 74 75 75 75 76 76 76 76 76 76 75 76 76 75 75 74 74 74 73 73 73 73 73 74 74
91 90 90 90 90 91 91 91 92 91 90 89 90 89 89 87 86 83 82 79 86 92 89 94 99 95 91 96 96 95 94 89 90 92 92 91 85 79 82 73 73 72 72 72 72 72 72 72 72 73 73 73 74 74 75 75 76 76 75 76 75 75 75 74 74 74 74 73 73 73 73 73 73 73
91 90 89 89 89 90 90 90 91 91 90 90 90 89 88 87 87 85 83 80 81 90 92 93 94 96 95 93 91 91 93 92 82 91 91 91 83 88 91 80 74 73 72 72 71 71 70 69 70 71 72 73 73 74 75 75 75 75 74 75 74 74 74 73 74 74 73 73 72 72 72 73 73 73
91 89 89 89 90 90 89 90 91 92 91 89 90 89 89 88 88 86 83 81 82 87 92 92 93 95 95 93 93 91 92 92 93 86 90 90 91 92 92 93 79 73 73 72 71 71 70 70 70 70 71 72 73 74 74 74 74 73 73 74 72 72 73 73 73 73 73 73 73 72 72 72 72 73
90 90 88 88 90 90 89 91 91 92 93 92 91 90 89 89 88 88 85 83 83 82 88 89 92 93 94 90 92 90 91 92 92 92 91 92 92 91 92 93 95 75 73 72 71 70 70 69 69 70 70 71 72 72 72 72 71 72 73 72 71 71 71 71 72 73 72 72 72 72 72 71 72 72
89 89 88 89 90 91 90 89 90 93 91 92 91 91 91 89 89 89 87 84 83 83 85 89 89 91 92 91 90 91 92 91 91 89 90 93 95 94 93 93 96 81 72 73 71 71 70 70 69 69 69 70 70 71 71 70 70 71 70 69 70 70 70 70 70 71 72 71 72 72 71 71 71 72
89 89 88 90 91 91 89 89 89 90 91 90 89 89 89 88 88 88 88 86 84 84 83 86 87 90 89 91 92 93 91 91 90 91 91 92 92 93 94 93 93 88 77 72 71 71 71 69 69 68 68 68 68 68 68 68 68 67 68 68 68 68 68 68 68 69 69 69 69 71 71 71 71 71
90 90 90 91 91 90 89 89 89 90 89 89 90 89 89 88 89 88 88 87 86 84 82 84 87 88 89 90 90 91 89 90 90 90 88 89 88 88 92 92 94 82 78 75 73 72 71 71 70 68 68 68 67 67 67 67 66 66 66 65 65 67 67 66 66 67 67 67 67 68 69 70 70 69
90 90 90 90 91 90 89 89 90 89 89 89 89 88 89 89 89 87 87 86 85 84 84 84 85 87 87 87 88 90 89 88 88 88 89 89 88 86 85 88 91 93 94 92 89 78 74 72 69 70 70 68 67 66 66 67 66 65 64 62 63 66 65 64 65 65 65 65 65 65 67 68 69 69
93 92 91 91 91 90 90 90 90 90 89 89 89 88 88 88 88 87 87 86 85 85 84 85 86 86 88 87 86 89 90 88 87 85 85 84 86 85 83 83 87 89 89 85 80 83 83 80 80 72 67 67 67 66 66 66 65 64 63 62 62 62 63 64 63 63 63 64 64 64 64 64 67 69
94 94 94 94 93 92 91 90 91 90 89 89 88 89 89 88 87 87 87 87 86 86 86 86 86 87 85 87 89 90 88 86 85 85 83 79 80 81 82 84 83 84 84 83 87 82 80 80 78 72 71 69 67 66 67 67 67 66 65 63 64 64 62 62 62 62 62 62 63 63 63 63 64 66
92 93 95 95 96 93 89 86 85 87 86 90 88 88 89 88 87 86 87 86 86 86 86 85 87 86 86 86 86 87 86 85 84 86 86 81 81 81 81 82 84 84 83 83 86 85 86 86 86 89 87 86 78 77 69 74 71 68 65 64 64 64 63 62 62 62 61 61 61 61 63 62 62 63
93 94 95 96 90 86 85 82 78 75 76 77 86 89 89 87 86 86 85 85 86 85 84 85 86 85 86 88 88 88 89 88 88 85 83 79 78 78 78 79 81 83 83 82 80 83 86 86 85 86 85 88 86 88 86 86 83 75 67 66 65 64 64 63 62 61 61 61 61 60 60 61 61 62
90 93 93 93 92 87 83 84 74 74 72 72 71 72 74 79 85 86 85 86 86 85 85 86 86 86 85 87 89 89 90 89 81 79 79 76 75 74 73 72 77 81 81 79 78 79 83 84 82 83 86 88 88 89 88 78 72 70 69 67 66 65 65 64 63 62 61 60 61 60 60 60 61 61
90 90 93 95 94 93 92 91 87 79 71 69 69 69 69 70 70 73 81 84 84 85 85 85 86 85 85 86 87 89 89 78 71 74 73 72 71 71 71 72 73 79 81 78 77 77 83 84 82 81 83 86 88 90 81 75 70 68 68 67 66 65 64 64 64 64 62 61 62 62 61 61 61 61
89 90 90 91 92 93 87 88 90 89 86 72 66 68 68 67 67 67 66 69 79 85 83 84 84 85 86 85 86 89 86 82 72 70 69 70 71 71 71 72 75 78 81 79 77 77 81 83 82 83 85 87 87 88 77 72 71 69 68 66 66 66 65 64 64 64 63 62 61 60 60 61 61 61
90 89 89 89 89 91 91 90 90 89 88 89 84 79 79 82 78 68 64 64 64 70 81 82 82 85 87 85 86 86 85 81 72 69 69 71 70 71 72 75 76 78 81 78 77 76 79 83 83 82 85 88 88 87 81 72 69 68 68 67 65 65 65 65 64 63 63 62 61 60 59 59 59 59
90 90 89 89 89 89 90 90 89 89 89 88 88 88 89 90 90 90 88 84 84 82 83 84 84 85 86 86 87 87 87 77 73 72 72 73 73 74 75 75 76 77 80 79 77 72 79 84 83 83 86 90 88 90 80 72 69 68 67 67 66 64 64 65 64 63 62 62 61 60 59 58 58 58
89 89 89 89 88 89 89 84 75 79 88 88 87 87 88 89 91 93 88 81 83 90 91 89 90 93 92 81 88 87 86 75 73 74 73 73 73 72 71 71 76 76 83 83 79 77 79 84 83 84 88 89 87 88 90 79 71 68 67 67 66 63 63 63 64 63 62 62 61 60 59 57 56 57
89 89 89 88 89 89 89 81 69 67 74 86 86 86 87 88 91 91 95 78 69 70 69 68 70 69 69 68 65 63 63 72 72 72 70 70 72 70 69 73 76 78 82 85 84 81 79 83 84 84 87 86 85 87 89 90 78 69 66 65 64 63 62 62 62 62 62 61 61 60 59 57 56 57
88 88 83 86 88 88 88 76 67 65 74 84 85 85 86 86 87 90 94 98 91 66 64 65 65 66 66 65 63 63 62 63 69 70 68 71 72 71 71 70 73 77 80 83 86 81 81 84 84 83 84 84 87 89 89 90 86 77 69 62 62 63 62 61 61 62 61 61 60 60 58 57 57 63
89 88 85 80 80 84 82 70 66 62 74 85 86 85 86 85 86 88 91 91 92 92 89 85 81 78 73 72 75 77 65 63 69 71 72 73 72 71 72 73 74 75 79 84 86 79 80 82 84 82 80 79 85 88 88 88 88 89 90 88 78 62 61 60 60 58 59 60 59 59 58 57 58 67
88 88 88 83 67 65 66 64 62 60 61 82 86 86 86 86 84 90 91 90 90 88 88 87 86 85 86 87 87 87 77 67 71 70 73 76 77 75 75 76 76 74 77 83 84 79 82 82 81 84 82 78 76 83 86 86 88 88 89 86 88 73 63 63 63 59 58 58 58 58 57 55 58 68
88 89 89 91 73 62 62 61 60 59 57 65 82 84 85 86 84 81 87 87 84 86 84 84 84 85 86 85 85 83 82 74 75 78 80 83 83 81 79 79 79 80 83 86 80 82 79 81 79 82 82 82 82 81 84 85 86 88 86 86 86 87 84 78 75 78 63 57 56 56 56 56 55 64
89 89 90 90 77 60 60 59 58 56 57 57 75 81 68 66 65 78 83 85 85 85 85 84 83 84 83 83 83 85 86 89 87 88 89 88 89 90 91 87 83 81 81 85 75 82 80 78 81 80 80 80 80 81 79 80 84 86 86 87 86 85 85 84 81 80 79 76 71 62 63 55 56 58
88 90 91 90 78 59 56 55 55 55 55 59 71 62 61 61 61 70 81 82 82 82 83 82 79 78 79 82 85 85 84 87 85 87 87 88 88 87 88 86 85 83 83 83 84 82 79 78 79 77 76 77 75 77 77 78 80 83 84 85 85 85 85 84 81 79 79 80 77 62 58 56 55 56
91 90 92 88 70 55 52 52 54 55 57 74 62 57 58 60 66 77 80 80 80 78 77 75 75 78 83 85 83 82 83 84 81 81 82 83 85 84 84 83 82 82 81 82 82 81 78 76 77 77 76 74 73 72 72 78 79 80 79 82 82 83 84 83 81 80 79 78 79 75 70 68 65 62
92 71 58 56 57 56 53 52 55 58 57 53 57 58 59 67 80 81 80 79 77 73 73 74 79 83 84 82 81 81 80 79 80 80 82 84 83 83 81 79 79 79 80 83 82 81 80 79 77 77 75 76 74 73 73 72 75 77 78 76 77 81 81 81 82 81 79 78 76 76 73 72 69 67
58 54 54 51 53 56 61 73 81 85 76 59 61 60 64 80 82 80 78 77 75 76 79 80 80 82 82 82 81 79 79 78 79 78 78 78 80 79 77 77 78 80 83 84 85 84 82 80 78 76 75 74 74 72 73 73 73 76 76 75 76 78 80 81 81 81 80 79 76 75 77 76 72 68
80 71 75 74 65 66 63 68 68 67 65 71 74 78 80 81 78 79 80 80 79 77 78 78 79 81 82 81 79 79 78 78 78 79 76 77 78 78 77 75 76 79 82 83 85 83 81 80 78 77 73 73 74 73 73 73 71 72 74 76 75 72 77 80 80 80 81 80 79 76 75 73 72 68
84 84 66 66 79 77 79 81 84 82 81 79 77 77 79 79 79 77 75 76 77 77 78 79 78 79 78 79 80 81 81 80 79 78 76 75 75 76 76 75 76 78 79 80 82 81 80 80 79 78 76 74 72 73 74 73 72 73 74 76 75 76 78 78 78 79 80 79 78 75 73 73 71 70
83 83 81 81 81 80 78 79 79 78 76 75 77 78 78 78 77 78 77 75 75 75 76 78 78 79 80 79 80 80 80 77 78 78 75 75 74 75 76 75 76 76 75 76 78 79 79 79 79 77 77 76 76 75 73 72 75 75 72 71 70 69 72 73 72 73 76 75 74 74 71 71 72 71
83 83 81 80 79 78 79 79 78 76 77 77 77 76 71 76 78 77 78 79 79 79 77 78 79 78 79 79 79 79 78 78 79 77 72 75 75 74 75 75 75 76 75 75 76 77 77 77 77 77 77 76 78 77 76 74 71 71 70 70 68 66 67 69 69 69 69 71 72 71 69 67 68 68
83 82 80 80 79 79 79 78 77 78 78 76 74 73 74 76 76 78 81 81 79 79 79 79 79 79 79 79 79 78 78 77 79 79 77 77 77 76 76 75 74 74 74 75 76 76 76 75 75 74 74 75 75 78 74 73 72 70 70 68 67 65 66 68 67 67 68 67 70 69 69 68 67 68
81 83 81 80 79 78 77 77 77 77 76 74 74 73 74 76 79 80 80 77 80 79 80 80 79 79 79 79 78 79 78 76 78 77 77 77 76 75 76 75 73 74 75 75 75 77 76 75 74 71 69 70 70 69 72 66 66 70 64 63 64 63 64 64 64 66 67 67 68 67 65 65 65 66
79 80 77 75 77 78 77 75 73 73 74 76 77 78 77 77 77 78 75 72 78 79 81 81 81 81 79 79 78 77 77 77 78 77 77 77 76 75 74 74 73 73 74 75 77 76 76 74 73 71 68 68 67 66 68 73 63 61 65 62 61 63 62 61 61 62 65 67 66 67 66 66 66 66
75 71 70 72 73 72 71 71 72 72 74 75 76 76 77 76 76 75 75 76 78 79 79 81 79 80 81 79 79 79 79 78 78 77 76 77 75 74 73 73 73 74 74 75 76 76 76 74 72 70 69 66 64 64 64 68 70 65 57 62 60 60 60 59 58 59 62 65 66 64 63 62 63 65
71 69 70 69 70 71 71 72 72 72 72 73 75 76 76 75 75 74 75 79 81 81 81 80 80 79 78 79 79 78 77 76 77 76 76 77 75 73 73 73 73 74 74 75 75 75 75 73 72 70 70 67 64 64 65 65 64 68 61 52 60 59 58 57 58 60 61 61 61 60 60 59 59 59
67 69 70 70 70 72 72 73 72 73 73 73 75 77 77 75 75 75 77 76 77 78 80 80 77 75 79 78 79 80 78 77 77 77 76 76 75 74 73 72 72 73 73 73 73 73 73 73 71 70 70 70 71 71 73 72 70 68 67 62 52 57 59 58 57 57 58 59 59 58 57 59 56 58
68 68 69 69 69 71 71 72 74 74 74 74 74 73 77 76 78 79 79 78 76 76 78 78 77 77 78 78 78 78 77 77 77 77 76 76 74 74 70 68 74 74 73 72 73 72 72 74 72 65 71 73 72 74 72 66 62 62 63 65 59 55 53 56 58 57 55 57 59 57 56 55 55 55
69 68 68 70 70 71 73 74 75 74 73 74 75 75 74 74 73 67 73 71 75 76 79 79 78 77 78 78 78 77 77 76 76 76 75 76 76 74 72 74 74 74 73 72 72 73 75 76 76 75 75 74 72 69 65 63 62 62 62 65 68 61 58 54 55 55 56 54 55 57 56 56 56 54
69 70 69 70 72 73 74 73 73 73 73 75 76 75 76 76 75 75 78 77 76 78 79 79 79 79 78 79 78 77 78 77 76 76 76 76 75 74 74 74 74 74 74 74 75 76 76 76 76 76 75 73 71 70 66 65 65 64 63 65 66 68 69 61 57 55 55 55 53 55 59 58 56 53
73 72 72 72 71 72 74 74 75 75 75 75 75 76 78 77 77 77 78 78 78 79 79 79 78 78 78 78 78 78 78 77 76 75 76 76 76 76 76 75 74 74 75 75 74 76 77 77 77 76 74 71 72 72 68 67 67 66 65 65 66 66 66 68 69 63 61 57 53 53 53 55 56 56
76 75 73 73 73 73 73 74 74 75 75 75 76 75 75 76 76 78 77 78 78 78 77 79 78 78 78 78 77 77 77 70 74 77 77 77 77 76 76 76 75 74 75 75 75 76 77 77 77 75 74 73 72 71 71 70 67 67 66 65 64 65 67 67 65 63 62 60 55 53 53 53 53 53
MSLP
1020.27 1020.35 1020.51 1020.71 1020.67 1020.59 1020.39 1020.51 1020.47 1020.67 1020.91 1021.03 1021.19 1021.43 1022.15 1022.63 1023.79 1024.15 1023.75 1023.03 1022.31 1020.95 1020.07 1020.75 1020.59 1019.95 1020.07 1020.19 1019.75 1019.95 1019.95 1019.71 1019.83 1019.83 1019.83 1019.79 1019.71 1019.67 1019.95 1020.15 1020.35 1020.51 1020.55 1020.51 1020.43 1020.35 1020.39 1020.47 1020.47 1020.47 1020.43 1020.39 1020.35 1020.31 1020.35 1020.35 1020.35 1020.35 1020.27 1020.23 1020.23 1020.15 1020.07 1020.03 1020.07 1020.11 1020.15 1020.23 1020.35 1020.43 1020.55 1020.59 1020.67 1020.75
1020.19 1020.15 1020.15 1020.19 1020.43 1020.27 1020.39 1020.43 1020.35 1020.55 1020.87 1021.03 1021.11 1021.23 1021.35 1021.71 1023.03 1023.27 1024.03 1023.43 1021.91 1021.59 1020.23 1019.83 1020.47 1020.23 1020.15 1019.95 1019.95 1019.71 1019.75 1019.55 1019.71 1019.67 1019.59 1019.47 1019.31 1019.35 1019.59 1019.79 1019.91 1019.99 1019.99 1019.91 1019.87 1019.87 1019.91 1019.95 1019.95 1019.91 1019.87 1019.87 1019.87 1019.83 1019.83 1019.83 1019.83 1019.79 1019.75 1019.71 1019.71 1019.67 1019.63 1019.63 1019.67 1019.75 1019.83 1019.95 1020.03 1020.15 1020.23 1020.31 1020.43 1020.55
1020.07 1020.31 1020.39 1020.19 1020.35 1020.19 1020.31 1020.27 1020.23 1020.27 1020.59 1020.83 1020.79 1020.91 1021.07 1021.43 1021.83 1022.55 1022.99 1023.79 1021.79 1020.67 1021.31 1020.23 1019.39 1019.87 1019.99 1019.59 1019.51 1019.47 1019.43 1019.39 1019.47 1019.43 1019.31 1019.15 1019.03 1019.15 1019.23 1019.39 1019.47 1019.51 1019.51 1019.43 1019.43 1019.47 1019.55 1019.51 1019.47 1019.43 1019.39 1019.39 1019.35 1019.35 1019.31 1019.27 1019.23 1019.19 1019.15 1019.11 1019.11 1019.15 1019.15 1019.15 1019.27 1019.39 1019.51 1019.67 1019.79 1019.91 1019.99 1020.07 1020.15 1020.27
1019.79 1020.11 1020.39 1020.27 1020.27 1020.11 1020.19 1020.27 1020.19 1020.27 1020.31 1020.39 1020.59 1020.71 1020.99 1021.19 1021.35 1021.71 1022.47 1023.03 1022.75 1020.91 1020.71 1020.31 1019.87 1019.51 1019.51 1019.43 1019.87 1019.75 1019.43 1019.03 1019.23 1019.19 1019.03 1018.79 1018.83 1018.83 1018.67 1018.71 1018.91 1018.99 1019.03 1019.03 1019.03 1019.07 1019.07 1019.03 1018.99 1018.95 1018.91 1018.87 1018.83 1018.79 1018.71 1018.67 1018.59 1018.55 1018.51 1018.51 1018.55 1018.59 1018.67 1018.75 1018.91 1019.07 1019.23 1019.35 1019.47 1019.59 1019.67 1019.75 1019.83 1019.95
1019.63 1019.91 1020.11 1020.07 1019.95 1019.79 1020.19 1020.15 1020.03 1019.95 1020.07 1020.23 1020.35 1020.39 1020.67 1020.99 1020.95 1021.43 1022.07 1022.63 1022.31 1021.11 1020.07 1020.11 1019.99 1019.35 1019.35 1019.63 1019.31 1019.67 1019.47 1019.19 1018.87 1018.87 1018.71 1018.55 1018.51 1018.35 1018.19 1017.99 1018.03 1018.27 1018.35 1018.43 1018.39 1018.35 1018.35 1018.31 1018.31 1018.27 1018.23 1018.19 1018.15 1018.11 1018.07 1017.99 1017.95 1017.91 1017.87 1017.87 1017.95 1018.07 1018.23 1018.43 1018.63 1018.75 1018.91 1018.99 1019.07 1019.19 1019.27 1019.35 1019.47 1019.59
1019.55 1019.67 1019.99 1019.95 1019.79 1019.63 1019.95 1019.91 1019.91 1019.79 1019.75 1019.87 1020.11 1020.23 1020.43 1020.63 1020.71 1020.59 1021.51 1021.83 1022.03 1022.03 1020.67 1020.43 1019.55 1019.55 1019.11 1019.95 1019.03 1019.51 1019.51 1019.19 1018.75 1018.63 1018.39 1018.11 1018.03 1018.07 1017.79 1017.63 1017.35 1017.47 1017.63 1017.67 1017.59 1017.55 1017.47 1017.43 1017.39 1017.35 1017.27 1017.27 1017.27 1017.31 1017.31 1017.27 1017.23 1017.19 1017.15 1017.19 1017.35 1017.63 1017.91 1018.11 1018.27 1018.31 1018.43 1018.47 1018.55 1018.67 1018.79 1018.91 1019.03 1019.15
1019.39 1019.63 1019.71 1019.71 1019.51 1019.35 1019.71 1019.79 1019.71 1019.43 1019.59 1019.47 1019.71 1019.87 1019.79 1020.27 1020.27 1020.19 1020.55 1021.31 1021.79 1021.59 1021.11 1020.15 1020.11 1019.63 1019.23 1019.43 1019.31 1018.91 1018.75 1018.63 1018.47 1018.63 1018.31 1017.99 1017.55 1017.35 1017.39 1017.39 1017.03 1016.83 1016.99 1016.95 1016.87 1016.75 1016.59 1016.47 1016.39 1016.35 1016.39 1016.47 1016.55 1016.63 1016.59 1016.55 1016.55 1016.51 1016.55 1016.67 1016.95 1017.35 1017.59 1017.67 1017.71 1017.79 1017.91 1018.03 1018.07 1018.19 1018.31 1018.47 1018.67 1018.83
1019.19 1019.35 1019.51 1019.35 1019.11 1019.07 1019.51 1019.63 1019.55 1019.35 1019.35 1019.51 1019.67 1019.79 1019.75 1019.91 1020.11 1019.99 1020.07 1020.35 1020.95 1020.99 1021.19 1020.31 1020.11 1019.43 1019.47 1019.07 1018.59 1018.47 1018.39 1018.47 1018.35 1018.11 1017.79 1017.47 1017.51 1017.31 1017.07 1016.91 1016.71 1016.35 1016.31 1016.31 1016.15 1015.99 1015.79 1015.63 1015.59 1015.67 1015.75 1015.87 1016.03 1016.07 1016.03 1016.03 1016.07 1016.07 1016.11 1016.31 1016.67 1016.99 1017.07 1017.11 1017.19 1017.31 1017.43 1017.55 1017.67 1017.75 1017.87 1018.07 1018.27 1018.47
1018.79 1018.91 1019.03 1018.91 1018.87 1018.95 1019.39 1019.35 1019.39 1019.19 1019.35 1019.31 1019.39 1019.59 1019.55 1019.67 1019.67 1019.75 1019.83 1019.99 1020.15 1020.67 1020.87 1020.35 1019.51 1019.15 1018.99 1018.63 1018.51 1018.35 1018.75 1018.39 1018.07 1017.75 1017.75 1017.59 1017.43 1017.27 1016.87 1016.55 1016.15 1015.87 1015.67 1015.55 1015.43 1015.27 1015.15 1015.11 1015.19 1015.23 1015.31 1015.51 1015.71 1015.71 1015.63 1015.63 1015.63 1015.59 1015.71 1016.03 1016.35 1016.51 1016.55 1016.67 1016.75 1016.83 1016.91 1017.03 1017.19 1017.31 1017.43 1017.59 1017.79 1017.99
1018.35 1018.55 1018.59 1018.55 1018.55 1018.71 1019.03 1019.07 1018.91 1018.91 1019.07 1019.11 1019.23 1019.35 1019.31 1019.23 1019.31 1019.59 1019.67 1019.71 1019.91 1020.11 1020.23 1020.15 1019.99 1019.19 1019.19 1018.87 1018.59 1018.19 1018.19 1018.55 1018.51 1017.99 1017.43 1017.11 1016.99 1017.11 1017.15 1016.63 1015.99 1015.47 1015.19 1014.91 1014.55 1014.51 1014.59 1014.71 1014.79 1014.87 1015.03 1015.35 1015.43 1015.31 1015.15 1015.07 1015.03 1015.15 1015.43 1015.75 1016.03 1016.11 1016.07 1016.11 1016.15 1016.23 1016.35 1016.51 1016.63 1016.79 1016.95 1017.11 1017.35 1017.59
1017.75 1017.91 1018.03 1018.11 1018.11 1018.31 1018.39 1018.51 1018.59 1018.63 1018.75 1018.83 1018.95 1018.95 1019.07 1019.03 1019.23 1019.39 1019.47 1019.51 1019.71 1019.79 1019.95 1019.71 1019.43 1019.35 1018.63 1018.59 1019.03 1018.15 1017.83 1018.07 1018.19 1018.35 1018.11 1017.95 1017.07 1016.83 1016.87 1016.83 1015.91 1015.31 1014.99 1014.43 1014.23 1014.27 1014.47 1014.43 1014.39 1014.47 1014.75 1014.87 1014.83 1014.67 1014.59 1014.51 1014.63 1014.75 1014.95 1015.23 1015.43 1015.51 1015.47 1015.43 1015.55 1015.71 1015.83 1015.99 1016.11 1016.27 1016.47 1016.71 1016.95 1017.19
1017.31 1017.35 1017.39 1017.39 1017.43 1017.59 1017.67 1017.87 1017.95 1018.07 1018.39 1018.39 1018.67 1018.43 1018.55 1018.75 1019.07 1019.23 1019.15 1019.23 1019.31 1019.43 1019.47 1019.55 1019.43 1018.99 1018.95 1018.51 1018.11 1017.87 1017.99 1018.55 1018.43 1017.95 1018.15 1018.47 1017.91 1017.31 1016.51 1016.11 1016.19 1015.59 1015.27 1014.99 1014.51 1014.47 1014.47 1014.19 1013.95 1013.87 1013.95 1014.15 1014.11 1013.91 1013.87 1013.83 1013.95 1014.07 1014.27 1014.51 1014.63 1014.63 1014.63 1014.71 1014.91 1015.11 1015.27 1015.39 1015.51 1015.71 1015.95 1016.27 1016.47 1016.71
1017.11 1017.03 1016.91 1016.83 1016.79 1016.83 1017.07 1017.27 1017.47 1017.51 1017.67 1018.03 1018.43 1018.31 1018.27 1018.55 1018.75 1018.95 1018.95 1018.95 1019.11 1019.15 1019.19 1019.23 1018.83 1018.87 1018.71 1018.39 1018.51 1018.55 1018.59 1018.75 1018.63 1017.75 1017.51 1017.87 1017.39 1016.83 1016.59 1016.07 1015.59 1015.27 1015.31 1014.87 1014.67 1014.67 1014.39 1014.15 1013.71 1013.47 1013.39 1013.23 1013.27 1013.11 1013.19 1013.07 1013.19 1013.35 1013.67 1013.87 1013.87 1013.87 1013.87 1013.99 1014.23 1014.39 1014.55 1014.71 1014.91 1015.11 1015.35 1015.67 1015.87 1015.95
1016.79 1016.71 1016.59 1016.35 1016.47 1016.71 1016.87 1017.11 1017.27 1017.51 1017.67 1017.79 1017.79 1017.91 1018.03 1018.27 1018.51 1018.63 1018.75 1018.83 1018.75 1018.87 1019.11 1018.99 1018.83 1018.87 1018.59 1018.07 1017.87 1018.15 1017.87 1017.63 1017.51 1017.83 1017.91 1018.19 1017.23 1017.07 1016.83 1015.79 1015.15 1014.71 1015.11 1015.27 1015.23 1014.67 1013.99 1013.99 1013.55 1013.35 1013.31 1012.71 1012.47 1012.19 1012.03 1011.95 1011.91 1012.07 1012.39 1012.63 1012.79 1012.91 1013.07 1013.23 1013.43 1013.63 1013.83 1014.07 1014.35 1014.59 1014.91 1015.15 1015.35 1015.51
1016.71 1016.43 1016.31 1016.23 1016.27 1016.51 1016.75 1016.87 1017.03 1017.23 1017.43 1017.59 1017.75 1017.83 1017.91 1017.95 1018.15 1018.39 1018.51 1018.39 1018.23 1018.47 1018.59 1018.31 1018.31 1018.31 1018.23 1017.71 1017.31 1017.47 1017.43 1017.51 1018.59 1018.83 1018.27 1017.95 1017.71 1017.67 1017.39 1016.59 1015.27 1014.87 1015.11 1015.51 1015.47 1014.71 1013.87 1013.75 1013.67 1012.83 1012.55 1012.11 1011.71 1011.35 1011.15 1010.99 1011.15 1011.31 1011.51 1011.67 1011.79 1011.91 1012.07 1012.35 1012.71 1012.99 1013.23 1013.47 1013.75 1014.07 1014.31 1014.55 1014.79 1015.03
1016.35 1016.35 1016.19 1015.99 1015.87 1015.95 1016.07 1016.19 1016.47 1016.83 1017.03 1017.27 1017.43 1017.59 1017.71 1017.83 1017.87 1017.83 1018.03 1018.19 1018.23 1018.11 1018.19 1018.19 1017.95 1017.91 1017.87 1017.47 1017.19 1017.07 1017.35 1018.99 1019.99 1019.35 1018.59 1018.23 1017.95 1017.35 1016.59 1016.47 1016.99 1015.07 1014.71 1015.63 1015.75 1014.71 1013.43 1013.35 1013.27 1012.63 1011.95 1011.67 1011.07 1010.67 1010.47 1010.55 1010.71 1010.83 1010.91 1011.03 1011.15 1011.39 1011.59 1011.75 1011.91 1012.15 1012.51 1012.87 1013.15 1013.43 1013.63 1013.91 1014.19 1014.43
1015.99 1015.99 1016.07 1015.99 1015.75 1015.55 1015.75 1015.95 1016.03 1016.07 1016.27 1016.67 1016.95 1017.11 1017.35 1017.51 1017.51 1017.59 1017.67 1017.71 1017.79 1017.55 1017.83 1017.95 1017.83 1017.59 1017.31 1017.31 1016.91 1016.55 1017.07 1017.83 1019.87 1020.23 1019.19 1017.67 1017.11 1016.83 1017.15 1016.79 1016.23 1015.15 1014.55 1015.23 1015.59 1015.11 1013.27 1013.23 1012.91 1012.23 1010.95 1011.11 1010.71 1010.27 1009.99 1010.03 1010.15 1010.35 1010.51 1010.67 1010.79 1010.91 1011.03 1011.19 1011.39 1011.63 1011.91 1012.23 1012.55 1012.87 1013.19 1013.35 1013.59 1013.87
1015.55 1015.63 1015.79 1015.87 1015.83 1015.47 1015.47 1015.55 1015.67 1015.79 1015.91 1015.95 1016.31 1016.79 1016.99 1016.91 1016.87 1017.19 1017.39 1017.43 1017.47 1017.47 1017.47 1017.51 1017.75 1017.03 1016.71 1016.95 1016.55 1016.39 1016.63 1017.59 1019.19 1020.07 1018.71 1017.11 1017.07 1017.15 1016.95 1016.15 1015.95 1014.83 1014.31 1015.15 1015.27 1015.11 1013.35 1012.79 1012.59 1011.91 1010.71 1010.51 1010.23 1009.83 1009.55 1009.59 1009.71 1009.75 1009.91 1010.03 1010.19 1010.31 1010.39 1010.55 1010.75 1011.03 1011.31 1011.63 1011.91 1012.31 1012.63 1012.83 1012.99 1013.27
1015.07 1015.11 1015.19 1015.31 1015.39 1015.27 1015.27 1015.11 1015.23 1015.47 1015.59 1015.75 1015.87 1015.87 1015.83 1015.75 1015.55 1015.59 1015.99 1016.35 1016.51 1016.67 1016.63 1016.67 1016.75 1016.71 1016.47 1016.27 1015.99 1015.95 1016.23 1017.43 1018.43 1018.27 1017.07 1016.43 1016.83 1016.55 1015.91 1015.87 1015.51 1014.95 1013.79 1014.23 1015.07 1015.43 1013.19 1012.51 1012.51 1011.43 1010.75 1010.23 1009.87 1009.31 1009.15 1009.11 1009.19 1009.27 1009.35 1009.39 1009.55 1009.75 1009.87 1009.99 1010.11 1010.31 1010.63 1010.95 1011.35 1011.75 1012.11 1012.39 1012.55 1012.67
1014.63 1014.63 1014.75 1014.91 1014.95 1014.91 1014.91 1014.79 1014.99 1015.19 1015.27 1015.51 1015.75 1015.79 1015.63 1015.47 1015.23 1015.07 1014.75 1014.71 1014.91 1015.07 1015.23 1015.43 1015.47 1015.27 1015.31 1015.39 1015.47 1015.59 1016.15 1017.31 1017.99 1017.43 1015.95 1016.23 1016.43 1016.59 1016.51 1016.19 1015.19 1015.19 1013.67 1013.59 1014.31 1014.43 1013.31 1012.27 1012.55 1011.39 1010.35 1009.99 1009.83 1009.23 1008.95 1008.55 1008.59 1008.67 1008.75 1008.87 1009.11 1009.39 1009.51 1009.55 1009.55 1009.75 1010.03 1010.31 1010.67 1011.11 1011.51 1011.87 1012.03 1012.19
1014.23 1014.23 1014.23 1014.39 1014.47 1014.47 1014.51 1014.47 1014.75 1015.03 1015.35 1015.55 1015.67 1015.67 1015.59 1015.35 1015.19 1014.95 1014.27 1014.15 1014.39 1014.55 1014.59 1014.59 1014.67 1014.91 1015.11 1015.35 1015.51 1015.71 1016.27 1017.03 1017.51 1016.83 1016.99 1017.03 1016.35 1016.79 1016.71 1015.87 1015.31 1014.75 1013.95 1013.19 1013.19 1013.51 1013.31 1012.19 1012.11 1011.63 1010.59 1010.11 1009.79 1009.39 1008.83 1008.31 1008.03 1008.15 1008.31 1008.51 1008.75 1008.95 1009.11 1009.19 1009.23 1009.35 1009.59 1009.87 1010.19 1010.51 1010.87 1011.27 1011.67 1011.95
1013.87 1013.75 1013.87 1013.99 1014.07 1014.19 1014.11 1014.11 1014.51 1014.79 1015.23 1015.51 1015.51 1015.55 1015.51 1015.47 1015.39 1014.91 1014.23 1013.79 1013.75 1014.03 1014.23 1014.51 1014.71 1014.83 1015.03 1015.35 1015.51 1015.59 1015.91 1016.95 1016.55 1016.87 1017.71 1016.51 1016.35 1016.59 1016.35 1016.35 1015.47 1014.67 1014.03 1013.35 1012.67 1013.47 1012.95 1012.07 1011.71 1011.79 1010.83 1010.11 1009.35 1008.99 1008.43 1008.07 1007.75 1007.59 1007.67 1007.95 1008.19 1008.43 1008.63 1008.83 1008.95 1009.11 1009.35 1009.47 1009.75 1010.07 1010.35 1010.71 1011.27 1011.95
1013.51 1013.47 1013.43 1013.63 1013.75 1013.75 1013.75 1013.99 1014.27 1014.63 1014.91 1015.07 1015.19 1015.19 1015.23 1015.35 1015.27 1014.79 1014.27 1014.35 1014.31 1014.23 1014.51 1014.55 1014.71 1014.91 1014.91 1015.07 1015.31 1015.43 1015.63 1016.67 1016.15 1015.95 1016.07 1015.99 1016.31 1016.43 1016.07 1015.83 1015.39 1015.11 1014.11 1013.03 1012.51 1013.79 1012.83 1012.55 1011.71 1011.71 1011.59 1011.31 1009.51 1008.79 1008.55 1008.35 1008.03 1007.71 1007.47 1007.39 1007.71 1008.07 1008.31 1008.43 1008.55 1008.79 1009.03 1009.23 1009.43 1009.63 1009.91 1010.31 1011.03 1011.35
1013.27 1013.15 1013.07 1013.03 1013.31 1013.55 1013.71 1013.87 1014.15 1014.43 1014.67 1014.71 1014.67 1014.71 1014.91 1014.95 1015.11 1014.11 1013.99 1013.95 1014.19 1014.47 1014.47 1014.43 1014.35 1014.43 1014.27 1014.27 1014.27 1014.31 1015.27 1016.23 1015.71 1015.23 1015.43 1015.47 1015.47 1015.67 1015.55 1015.27 1015.19 1015.23 1014.23 1012.99 1012.55 1013.39 1012.47 1012.11 1011.99 1011.27 1011.47 1011.83 1010.91 1009.31 1008.55 1008.31 1007.99 1007.71 1007.47 1007.51 1007.43 1007.39 1007.83 1008.03 1008.27 1008.35 1008.55 1008.83 1008.99 1009.19 1009.55 1010.07 1010.55 1010.67
1013.03 1012.87 1012.71 1012.39 1012.51 1013.07 1013.39 1013.63 1013.83 1014.11 1014.51 1014.55 1014.47 1014.47 1014.59 1014.43 1014.19 1014.19 1014.43 1014.27 1014.39 1014.55 1014.63 1014.63 1014.59 1014.51 1014.35 1014.35 1014.31 1014.47 1014.67 1015.35 1015.23 1014.91 1014.67 1014.43 1014.35 1014.63 1014.87 1014.75 1014.35 1013.87 1012.95 1012.19 1012.07 1012.71 1012.79 1012.07 1012.03 1011.39 1011.03 1010.83 1010.07 1009.63 1008.79 1008.43 1007.87 1007.79 1007.51 1007.35 1007.31 1006.91 1007.07 1007.43 1007.55 1007.63 1007.83 1008.11 1008.47 1008.79 1009.15 1009.55 1009.87 1009.87
1012.43 1012.35 1012.19 1012.15 1012.19 1012.63 1013.03 1013.31 1013.59 1013.83 1014.23 1014.47 1014.63 1014.27 1014.15 1014.11 1014.35 1014.67 1014.59 1014.59 1014.59 1014.55 1014.47 1014.51 1014.63 1014.63 1014.79 1014.79 1014.59 1014.47 1014.47 1014.03 1014.03 1014.07 1013.91 1013.75 1013.51 1013.19 1012.99 1013.19 1013.55 1013.67 1013.03 1011.95 1012.11 1012.51 1012.71 1012.43 1011.95 1011.87 1011.35 1011.15 1010.31 1010.03 1009.55 1008.99 1008.31 1007.63 1007.27 1007.07 1007.07 1006.87 1006.83 1006.91 1007.19 1007.19 1007.07 1007.31 1007.83 1008.31 1008.55 1008.91 1009.15 1009.27
1012.03 1011.75 1011.75 1011.71 1011.91 1012.39 1012.71 1013.03 1013.31 1013.55 1013.87 1014.51 1014.43 1014.15 1014.15 1014.35 1014.71 1014.91 1014.71 1014.63 1014.75 1014.75 1014.63 1014.75 1015.15 1015.27 1015.11 1014.79 1014.51 1014.59 1014.71 1014.31 1014.35 1014.31 1014.03 1013.79 1013.63 1013.47 1013.15 1012.95 1012.95 1013.03 1012.55 1012.19 1012.11 1012.31 1012.59 1012.51 1011.99 1012.31 1012.11 1011.59 1011.39 1010.43 1010.23 1009.63 1008.75 1007.99 1007.79 1007.39 1007.19 1007.03 1006.67 1006.59 1006.75 1006.99 1006.95 1006.91 1006.83 1007.07 1007.67 1008.23 1008.59 1008.75
1011.35 1011.39 1011.35 1011.35 1011.67 1012.19 1012.51 1012.79 1013.07 1013.31 1013.83 1013.79 1013.75 1014.11 1014.31 1014.59 1014.83 1014.71 1014.51 1014.51 1014.59 1014.83 1015.07 1015.35 1015.47 1015.19 1014.59 1014.39 1014.71 1014.83 1014.75 1014.59 1014.59 1014.51 1014.27 1014.03 1013.75 1013.63 1013.39 1013.19 1013.15 1012.95 1012.83 1012.71 1012.51 1012.47 1012.55 1012.63 1012.27 1011.87 1011.79 1011.79 1011.71 1011.39 1010.79 1009.71 1009.19 1008.71 1008.51 1007.79 1007.59 1007.31 1006.99 1006.75 1006.55 1006.35 1006.27 1006.51 1006.71 1006.91 1007.67 1008.23 1008.67 1009.15
1010.99 1011.35 1011.63 1011.83 1012.07 1012.31 1012.63 1012.91 1013.23 1013.51 1013.63 1013.83 1013.99 1014.15 1014.31 1014.43 1014.07 1014.07 1014.15 1014.31 1014.67 1015.27 1015.47 1015.31 1014.83 1014.43 1014.43 1014.63 1014.71 1014.63 1014.71 1014.67 1014.47 1014.35 1014.07 1013.83 1013.75 1013.55 1013.55 1013.51 1013.39 1013.19 1012.99 1012.63 1012.43 1012.31 1012.27 1012.23 1012.19 1011.87 1011.79 1011.63 1011.67 1011.15 1010.95 1010.55 1009.87 1009.23 1008.71 1008.55 1008.23 1007.47 1007.07 1006.75 1006.39 1006.19 1005.99 1005.99 1006.35 1006.63 1006.75 1006.91 1007.39 1007.95
1011.91 1011.95 1012.07 1012.31 1012.47 1012.63 1012.79 1012.83 1012.83 1012.67 1013.23 1013.79 1014.03 1014.11 1014.15 1013.67 1013.47 1013.87 1014.15 1014.43 1014.79 1014.83 1014.59 1014.47 1014.63 1014.51 1014.47 1014.47 1014.47 1014.59 1014.59 1014.63 1014.59 1014.51 1014.51 1014.35 1013.99 1013.91 1013.95 1013.83 1013.39 1012.83 1012.39 1012.11 1011.95 1011.87 1011.95 1012.03 1011.99 1011.91 1011.79 1011.47 1011.27 1011.07 1010.55 1010.19 1009.71 1009.15 1008.75 1008.59 1008.03 1007.31 1006.83 1006.47 1006.31 1005.99 1005.87 1005.83 1005.83 1005.99 1005.99 1006.15 1006.35 1006.95
1011.83 1012.23 1012.15 1012.23 1012.43 1012.39 1012.71 1012.71 1012.71 1013.07 1013.43 1013.59 1013.75 1013.67 1013.47 1013.47 1013.79 1013.83 1013.91 1014.03 1014.23 1014.47 1014.67 1014.67 1014.51 1014.47 1014.39 1014.31 1014.43 1014.51 1014.55 1014.59 1014.47 1014.27 1014.43 1014.31 1014.11 1013.95 1013.79 1013.87 1013.55 1012.91 1012.43 1012.07 1011.87 1011.91 1011.99 1011.79 1011.71 1011.63 1011.75 1011.35 1010.91 1010.63 1010.15 1009.99 1009.87 1009.35 1008.75 1008.23 1007.95 1008.27 1006.95 1006.35 1006.07 1005.87 1005.59 1005.39 1005.27 1005.39 1005.63 1006.03 1006.35 1006.59
1011.39 1011.79 1012.39 1012.43 1012.39 1012.63 1012.71 1012.63 1012.59 1012.79 1012.91 1013.19 1013.47 1013.67 1013.59 1013.63 1013.63 1013.87 1013.99 1014.11 1014.15 1014.39 1014.35 1014.43 1014.51 1014.51 1014.55 1014.47 1014.39 1014.19 1014.15 1014.27 1014.27 1014.19 1014.31 1014.39 1014.23 1013.95 1013.75 1013.75 1013.47 1013.03 1012.71 1012.35 1011.99 1011.79 1011.67 1011.55 1011.47 1011.27 1011.15 1011.03 1010.95 1010.35 1009.95 1009.83 1009.59 1009.03 1008.59 1008.03 1007.71 1007.27 1006.75 1006.55 1006.19 1005.75 1005.35 1005.11 1005.11 1005.19 1005.35 1005.47 1005.87 1006.15
1011.15 1011.55 1012.03 1012.23 1012.35 1012.55 1012.79 1012.79 1012.91 1013.27 1013.55 1013.67 1013.55 1013.63 1013.75 1013.87 1013.99 1014.07 1014.15 1014.43 1014.51 1014.47 1014.39 1014.59 1014.59 1014.47 1014.27 1014.35 1014.19 1014.15 1014.19 1014.35 1014.23 1014.11 1014.27 1014.15 1014.19 1013.87 1013.63 1013.63 1013.31 1013.23 1013.19 1012.83 1012.39 1011.99 1011.67 1011.47 1011.23 1011.15 1010.95 1010.67 1010.39 1010.15 1009.99 1009.83 1009.23 1008.83 1008.91 1008.75 1008.51 1008.31 1007.91 1007.39 1006.99 1006.35 1005.51 1005.31 1005.27 1005.07 1005.19 1005.11 1005.07 1005.35
1011.15 1011.47 1011.91 1012.07 1012.31 1012.55 1012.67 1012.79 1012.99 1013.35 1013.43 1013.51 1013.67 1013.87 1013.95 1013.91 1013.91 1013.95 1013.95 1013.95 1014.07 1014.15 1014.27 1014.27 1014.23 1014.43 1014.27 1014.35 1014.31 1014.23 1014.23 1014.19 1013.95 1013.99 1014.19 1014.11 1013.91 1013.91 1013.67 1013.51 1013.31 1013.15 1013.11 1012.91 1012.55 1012.23 1011.95 1011.67 1011.43 1011.11 1010.83 1010.55 1010.07 1009.79 1009.71 1009.91 1009.95 1009.63 1009.47 1009.23 1009.11 1008.91 1008.39 1007.87 1007.27 1006.95 1006.67 1006.11 1005.35 1005.03 1005.07 1005.15 1005.19 1005.19
1010.95 1011.23 1011.71 1011.95 1011.99 1012.19 1012.31 1012.51 1012.71 1012.71 1012.91 1013.39 1013.71 1013.95 1013.95 1013.79 1013.83 1013.67 1013.51 1013.59 1013.75 1013.87 1013.95 1014.07 1014.07 1014.03 1014.15 1014.31 1014.35 1014.31 1014.27 1014.23 1013.91 1013.79 1013.71 1013.63 1013.67 1013.67 1013.55 1013.55 1013.43 1013.35 1013.15 1012.87 1012.55 1012.19 1011.99 1011.79 1011.55 1011.39 1011.07 1010.67 1010.39 1009.71 1009.47 1009.75 1009.99 1009.83 1009.75 1009.79 1009.67 1009.35 1008.75 1008.19 1007.79 1007.15 1006.71 1006.07 1005.51 1005.15 1004.71 1004.67 1004.95 1004.83
1010.71 1010.75 1011.23 1011.63 1011.91 1011.99 1012.23 1012.23 1012.27 1012.43 1012.91 1013.39 1013.63 1013.79 1013.87 1013.75 1013.43 1013.35 1013.47 1013.71 1013.75 1013.79 1013.79 1013.83 1013.91 1013.99 1013.99 1014.07 1014.19 1014.11 1014.15 1014.07 1013.87 1013.91 1013.75 1013.67 1013.71 1013.67 1013.47 1013.51 1013.51 1013.31 1012.99 1012.75 1012.55 1012.11 1011.99 1011.87 1011.71 1011.83 1011.83 1011.43 1011.19 1011.03 1010.43 1010.03 1010.15 1010.31 1010.55 1010.47 1010.15 1009.75 1009.23 1008.75 1008.15 1007.47 1006.63 1005.87 1005.31 1005.19 1005.07 1004.87 1004.87 1004.75
1010.31 1010.47 1011.35 1012.15 1012.03 1012.07 1012.23 1012.59 1012.99 1013.11 1013.07 1013.03 1013.15 1013.15 1013.23 1013.35 1013.47 1013.55 1013.87 1013.99 1013.79 1013.71 1013.71 1013.67 1013.79 1013.75 1013.91 1013.95 1013.95 1013.99 1013.91 1013.91 1013.95 1013.83 1013.71 1013.59 1013.63 1013.63 1013.63 1013.51 1013.39 1013.19 1012.99 1012.67 1012.31 1012.11 1011.99 1011.99 1011.95 1012.07 1012.15 1011.91 1011.75 1011.63 1011.11 1010.19 1010.59 1010.67 1010.95 1011.07 1010.59 1010.19 1009.79 1009.03 1008.27 1007.55 1006.91 1006.31 1005.59 1005.11 1004.83 1004.63 1004.71 1004.63
1010.35 1010.75 1011.15 1011.39 1011.95 1012.59 1013.07 1013.07 1013.03 1013.03 1012.95 1012.87 1012.99 1013.15 1013.23 1013.39 1013.51 1013.71 1013.79 1013.83 1013.79 1013.67 1013.83 1013.67 1013.87 1013.87 1013.75 1013.83 1013.83 1013.91 1013.83 1013.79 1013.71 1013.67 1013.55 1013.55 1013.75 1013.75 1013.75 1013.67 1013.43 1013.11 1012.95 1012.55 1012.23 1012.15 1012.03 1012.11 1012.31 1012.39 1012.31 1012.39 1012.31 1012.03 1011.63 1010.95 1010.59 1010.83 1011.27 1011.27 1011.19 1010.71 1010.27 1009.63 1008.75 1007.87 1007.03 1006.35 1005.83 1005.55 1005.23 1005.03 1004.83 1004.67
1010.27 1010.75 1011.19 1011.67 1012.07 1012.35 1012.67 1012.67 1012.55 1012.75 1012.99 1013.19 1013.27 1013.35 1013.51 1013.51 1013.59 1013.75 1013.71 1013.47 1013.39 1013.43 1013.59 1013.79 1013.87 1013.95 1013.99 1013.91 1013.79 1013.79 1013.95 1013.95 1013.79 1013.67 1013.63 1013.51 1013.71 1013.87 1013.75 1013.71 1013.51 1013.15 1012.95 1012.67 1012.39 1012.27 1012.23 1012.31 1012.47 1012.55 1012.39 1012.43 1012.51 1012.23 1011.95 1011.63 1011.43 1011.15 1011.27 1011.43 1011.35 1011.03 1010.59 1010.15 1009.23 1008.23 1007.39 1006.83 1006.43 1006.31 1006.11 1005.91 1005.47 1005.27
1010.27 1010.35 1010.71 1011.15 1011.59 1011.87 1011.99 1011.95 1012.15 1012.51 1012.91 1013.11 1013.19 1013.35 1013.59 1013.71 1013.63 1013.63 1013.59 1013.71 1013.83 1013.75 1013.55 1013.79 1014.07 1014.15 1013.95 1013.95 1013.79 1013.55 1013.63 1013.71 1013.63 1013.59 1013.63 1013.51 1013.59 1013.67 1013.75 1013.79 1013.51 1013.19 1013.03 1012.83 1012.75 1012.55 1012.51 1012.43 1012.55 1012.71 1012.51 1012.19 1011.91 1011.71 1011.19 1011.11 1011.19 1011.39 1011.27 1011.15 1011.27 1011.19 1011.03 1010.43 1009.63 1008.95 1008.11 1007.55 1007.15 1006.83 1006.67 1006.31 1006.35 1006.31
1010.67 1010.95 1011.23 1011.31 1011.47 1011.55 1011.59 1011.59 1011.71 1012.11 1012.47 1012.79 1013.23 1013.51 1013.55 1013.63 1013.47 1013.39 1013.47 1013.59 1013.75 1013.91 1013.87 1013.95 1014.11 1014.03 1013.95 1013.95 1013.83 1013.71 1013.71 1013.63 1013.51 1013.47 1013.51 1013.35 1013.39 1013.47 1013.67 1013.55 1013.11 1012.99 1013.07 1012.95 1012.83 1012.71 1012.67 1012.31 1012.23 1012.19 1011.99 1011.75 1011.75 1011.35 1011.23 1011.75 1011.95 1011.67 1011.35 1011.03 1010.79 1010.79 1010.87 1010.79 1010.35 1009.71 1009.15 1008.35 1007.67 1007.43 1007.19 1007.11 1006.95 1006.91
1010.83 1011.23 1011.51 1011.43 1011.39 1011.39 1011.43 1011.51 1011.51 1011.83 1012.23 1012.51 1012.63 1012.95 1013.39 1013.71 1013.87 1014.03 1014.03 1014.11 1013.95 1013.87 1013.71 1013.83 1013.99 1013.91 1013.79 1013.83 1013.67 1013.59 1013.59 1013.67 1013.59 1013.51 1013.43 1013.35 1013.31 1013.23 1013.19 1013.11 1013.15 1012.99 1012.99 1013.03 1012.87 1012.71 1012.31 1011.87 1011.71 1011.75 1011.63 1011.67 1011.75 1011.67 1011.95 1012.03 1011.83 1011.67 1011.59 1011.15 1010.67 1010.43 1010.51 1010.55 1010.39 1010.11 1009.67 1009.31 1008.67 1007.91 1007.75 1007.55 1007.35 1007.39
1010.99 1011.19 1011.55 1011.71 1011.67 1011.63 1011.75 1011.95 1011.99 1012.03 1012.27 1012.51 1012.71 1013.07 1013.35 1013.59 1013.79 1013.87 1013.55 1013.75 1013.91 1013.75 1013.67 1013.71 1013.71 1013.63 1013.67 1013.59 1013.63 1013.63 1013.51 1013.51 1013.51 1013.47 1013.39 1013.35 1013.43 1013.43 1013.31 1013.15 1013.11 1012.95 1012.79 1012.67 1012.51 1012.27 1012.07 1011.83 1011.51 1011.51 1011.59 1011.83 1011.75 1011.59 1011.91 1011.79 1011.59 1011.63 1011.55 1011.23 1010.95 1010.63 1010.31 1010.15 1010.07 1009.91 1009.63 1009.31 1009.11 1008.75 1008.03 1007.71 1007.67 1007.71
1010.79 1011.11 1011.35 1011.51 1011.59 1011.63 1011.83 1012.03 1012.19 1012.35 1012.47 1012.71 1013.03 1013.15 1013.11 1013.27 1013.43 1013.39 1013.31 1013.51 1013.67 1013.59 1013.59 1013.63 1013.67 1013.63 1013.63 1013.59 1013.55 1013.43 1013.39 1013.47 1013.59 1013.55 1013.39 1013.15 1012.99 1012.95 1012.99 1012.99 1013.03 1012.95 1012.67 1012.55 1012.51 1012.15 1012.03 1011.79 1011.55 1011.51 1011.63 1011.87 1011.55 1011.27 1011.51 1011.47 1011.35 1011.39 1011.51 1011.31 1010.99 1010.71 1010.43 1010.15 1009.75 1009.67 1009.59 1009.71 1009.55 1008.99 1008.47 1007.95 1007.67 1007.51
1010.71 1010.91 1011.15 1011.31 1011.55 1011.83 1012.11 1012.35 1012.51 1012.63 1012.75 1012.99 1013.15 1013.35 1013.47 1013.39 1013.35 1013.39 1013.47 1013.55 1013.55 1013.63 1013.67 1013.55 1013.47 1013.47 1013.47 1013.43 1013.51 1013.51 1013.47 1013.67 1013.35 1012.91 1012.91 1012.79 1012.67 1012.59 1012.51 1012.63 1012.67 1012.83 1012.55 1012.39 1012.43 1011.95 1011.59 1011.51 1011.43 1011.55 1011.47 1011.43 1011.59 1011.43 1010.99 1011.11 1011.55 1011.39 1011.31 1011.27 1011.11 1010.87 1010.43 1010.35 1010.15 1010.11 1010.15 1010.15 1010.35 1009.79 1009.27 1008.95 1008.67 1008.43
Wind_Speed
6 6 6 6 5 4 4 4 4 2 3 3 3 3 4 3 5 5 5 3 3 1 2 2 6 2 2 3 3 4 4 4 5 7 8 8 9 10 15 15 15 15 16 16 17 18 18 18 18 19 19 19 20 20 19 19 18 18 18 18 17 17 17 16 15 14 13 13 13 13 13 12 12 12
6 6 5 5 5 5 5 5 4 3 4 4 4 4 4 4 5 4 6 6 5 5 3 4 4 4 4 4 4 4 5 5 7 7 8 8 9 11 13 14 15 16 16 17 18 18 18 19 19 20 20 20 20 21 21 20 20 20 20 19 19 18 18 17 16 15 15 14 14 14 14 14 13 12
6 6 7 5 5 5 5 5 4 4 4 5 4 4 4 4 5 5 5 7 4 3 3 3 4 2 4 4 4 4 5 5 8 7 8 9 11 10 8 12 14 15 16 17 18 18 18 19 19 19 20 20 21 21 21 22 21 21 21 21 20 20 19 18 17 16 16 15 14 14 15 14 14 13
6 7 8 7 6 5 5 5 5 5 5 5 5 5 4 5 5 5 6 7 9 5 7 6 5 6 6 5 6 6 6 5 11 8 8 9 9 8 10 13 16 16 17 17 18 18 19 19 20 20 20 20 21 21 22 22 23 23 22 22 21 21 20 19 18 17 16 15 12 14 15 15 15 14
7 7 8 8 7 7 7 6 6 6 6 6 6 6 5 6 6 6 6 7 9 7 5 6 6 6 7 7 6 7 7 6 6 9 9 9 9 9 8 9 14 19 18 19 19 20 20 20 21 21 22 22 22 22 23 23 23 23 23 23 22 21 20 19 18 17 16 16 16 14 15 16 16 16
7 7 8 8 8 8 8 7 7 7 7 7 7 6 6 6 6 6 6 7 7 9 5 6 6 6 6 8 7 7 8 7 7 8 8 7 8 8 8 8 8 15 18 19 20 21 21 21 22 22 23 23 23 23 24 24 24 24 24 23 22 21 19 18 18 18 17 17 17 17 17 17 16 17
8 9 8 9 8 7 8 8 8 8 7 7 7 7 6 6 6 6 7 7 8 9 8 6 8 7 6 7 7 7 7 7 7 8 9 9 8 8 8 8 9 8 15 18 20 21 21 22 22 23 23 23 23 23 24 24 24 24 24 23 21 19 19 19 19 19 19 18 18 18 17 18 17 17
9 9 9 9 9 8 8 8 7 7 7 7 7 7 7 7 7 7 7 8 8 8 9 7 8 7 8 7 7 7 7 8 8 8 8 9 9 9 9 9 10 11 13 17 19 20 21 22 22 22 22 22 21 22 23 23 23 23 23 22 20 19 19 20 19 20 19 19 19 19 18 19 18 17
9 9 9 9 8 8 8 8 8 8 9 8 7 7 7 7 7 6 7 7 8 8 9 8 7 7 8 8 7 7 7 7 8 8 9 9 9 9 9 8 9 12 16 17 19 19 20 21 21 21 20 20 20 21 22 22 22 23 22 20 18 19 19 19 19 20 20 20 19 19 19 19 19 18
10 9 10 10 9 9 9 9 8 8 8 8 8 8 7 7 6 7 7 7 8 8 9 8 8 7 8 7 6 6 7 7 7 8 8 8 8 8 8 9 9 8 9 8 10 15 17 20 21 20 18 17 19 20 21 21 22 22 20 18 17 19 20 20 20 20 20 20 20 20 20 20 19 19
10 10 10 10 10 10 10 10 9 8 8 8 9 8 8 7 7 7 7 7 9 9 9 8 8 8 8 7 7 5 6 7 7 8 8 8 6 6 7 9 9 9 10 13 16 14 13 14 11 12 16 17 19 20 21 21 21 21 20 18 18 20 21 21 21 20 21 21 21 20 20 19 19 19
11 11 11 11 11 11 10 10 9 9 8 7 8 7 7 7 7 7 7 7 8 8 8 8 8 7 8 7 7 6 7 8 8 7 7 8 7 7 8 9 9 7 9 11 11 8 9 13 17 20 17 16 18 20 20 22 21 21 20 18 19 21 22 22 21 21 21 21 21 21 20 20 20 20
10 10 11 11 12 11 10 11 9 8 5 6 7 7 7 8 7 7 7 7 7 7 8 8 8 9 9 8 7 8 7 7 8 7 8 7 8 9 9 7 7 9 10 11 11 9 8 11 13 11 9 8 14 18 21 18 20 20 19 19 21 22 23 22 22 22 22 22 22 22 21 21 21 21
11 11 11 11 12 10 9 10 11 11 10 9 10 8 7 8 8 8 8 9 8 8 8 8 8 9 9 9 8 8 7 6 7 7 6 8 9 7 9 11 8 8 9 10 10 8 8 10 12 10 11 11 11 12 11 11 14 16 20 22 23 23 23 23 22 23 22 22 22 22 21 21 22 22
10 10 11 10 10 10 10 11 13 13 13 14 14 14 13 11 9 9 10 9 9 9 9 9 9 9 10 11 10 9 7 5 8 5 4 7 7 9 9 11 4 4 5 7 9 11 8 9 12 13 13 13 13 13 14 15 16 18 18 20 22 23 23 23 22 22 22 22 22 22 22 22 22 22
10 10 10 10 9 9 11 10 10 13 16 15 15 16 15 16 17 15 12 11 10 11 11 11 11 10 10 11 10 9 7 7 5 5 8 8 10 13 14 7 8 2 2 6 8 14 8 9 12 15 13 12 13 14 15 16 16 16 18 19 20 20 21 21 22 22 22 22 22 23 23 23 23 23
10 9 9 9 9 8 10 10 11 10 10 15 18 17 17 16 17 17 18 17 14 12 12 12 12 10 11 11 10 9 8 4 8 2 10 14 12 12 10 11 10 10 3 6 12 17 14 9 12 15 14 11 12 14 15 19 19 18 18 18 18 19 20 20 21 21 21 22 23 22 22 23 24 23
10 11 10 9 9 9 9 9 10 10 11 9 8 10 10 11 14 16 18 19 20 18 14 14 14 12 11 12 12 11 9 7 7 9 14 14 11 9 11 11 10 12 9 14 13 16 16 10 11 15 13 9 11 12 15 15 16 19 20 20 19 20 21 21 20 21 21 21 22 22 22 23 24 23
11 11 10 11 11 10 10 9 9 10 9 8 8 9 10 10 10 10 12 14 12 11 12 13 13 13 13 12 12 9 6 9 10 9 14 12 8 10 12 12 13 14 12 11 12 15 14 10 12 14 12 11 12 11 13 14 16 17 19 20 20 20 21 21 21 20 20 21 21 22 22 22 23 24
11 11 11 11 11 11 11 11 11 10 9 9 10 10 11 10 10 10 10 10 10 10 9 10 10 10 9 9 11 10 5 11 8 10 14 8 10 11 13 13 10 11 10 8 10 12 14 10 11 14 13 12 13 12 12 15 14 16 19 20 19 19 19 20 21 20 20 20 21 22 22 23 24 24
12 12 12 12 11 11 12 11 11 12 11 11 11 11 11 11 10 10 9 12 17 15 16 19 18 16 13 11 11 11 2 10 10 11 7 11 9 10 12 13 12 10 8 9 8 10 13 11 11 13 14 14 14 14 14 12 14 12 15 17 18 18 19 20 19 19 18 19 20 21 22 23 22 23
11 12 14 14 13 12 11 11 11 12 10 10 11 11 12 11 11 10 10 9 7 15 15 13 14 15 13 11 12 13 8 17 12 8 9 11 6 10 10 12 12 11 9 9 9 11 13 12 11 13 13 14 13 12 11 11 11 11 11 16 17 18 19 19 19 18 17 19 19 20 22 22 21 15
11 12 12 15 15 13 12 11 10 11 11 11 11 11 11 11 12 10 10 9 11 7 5 6 6 7 10 9 7 9 12 18 14 11 10 7 8 10 10 11 11 13 8 5 5 10 12 12 12 11 12 13 13 11 11 10 10 11 12 8 8 16 18 18 19 18 17 17 18 20 21 21 18 11
11 12 11 12 17 19 17 14 12 11 12 11 11 10 11 12 12 10 10 8 8 8 9 9 8 8 9 9 7 6 7 13 14 11 10 10 9 9 10 10 10 12 11 8 8 12 13 12 13 11 12 15 15 12 13 12 11 12 12 11 13 9 16 17 15 19 17 17 19 20 20 19 19 12
11 10 11 10 13 19 19 18 17 14 13 11 11 11 12 12 9 8 9 11 10 10 9 7 8 7 6 7 6 3 5 11 9 8 8 8 9 8 9 10 11 13 12 9 7 10 14 13 14 14 14 13 15 15 13 14 13 12 12 13 13 13 6 8 9 10 15 20 19 19 19 20 24 18
11 11 9 9 9 16 18 18 16 16 14 14 9 10 12 13 11 7 8 9 9 9 9 8 7 6 6 6 4 2 2 2 4 4 6 8 8 9 10 10 11 12 12 10 3 8 13 14 14 15 15 16 17 16 17 15 14 14 13 12 12 12 11 11 7 10 9 9 10 15 17 23 24 27
10 9 9 9 9 14 15 15 15 14 13 8 9 14 13 11 5 4 7 8 8 7 7 6 5 4 4 5 4 1 2 1 1 3 4 5 7 8 10 10 10 12 13 13 13 13 12 13 12 13 14 13 15 15 15 15 13 12 13 13 11 11 12 12 10 9 10 9 9 18 20 20 24 26
10 11 11 9 8 13 13 13 12 12 9 8 10 12 11 6 4 5 6 7 6 5 4 3 3 4 4 3 0 2 2 3 2 4 5 6 7 7 8 8 10 11 12 12 12 11 10 11 11 11 12 13 13 14 15 13 14 14 14 12 12 13 12 12 12 11 8 8 10 7 9 10 12 13
9 6 12 12 9 8 7 8 6 4 7 8 3 3 6 7 5 5 5 3 2 3 2 4 5 3 1 1 1 1 2 3 4 4 3 4 5 4 5 8 9 9 7 8 8 9 9 9 10 10 10 11 12 13 13 13 14 14 13 15 14 13 12 11 12 12 12 8 7 7 10 11 12 16
10 8 9 10 11 9 8 7 6 6 4 6 5 6 7 6 4 3 4 3 3 4 3 2 1 0 1 0 1 1 2 3 1 2 3 4 3 3 5 6 7 7 6 6 7 6 7 8 9 10 11 11 12 13 13 15 15 14 14 14 15 14 10 10 10 12 13 12 8 10 11 10 11 14
4 6 3 4 5 7 6 6 10 9 9 7 5 4 4 2 3 4 4 4 4 3 1 1 0 1 1 0 1 1 1 1 1 2 3 4 3 4 4 6 6 5 4 5 5 5 6 7 8 10 11 11 12 13 14 14 14 14 14 14 13 14 13 13 12 12 12 12 12 9 7 7 8 10
12 6 8 7 4 4 4 5 5 4 3 3 3 3 3 3 1 4 6 4 2 2 1 1 1 1 1 1 1 1 1 2 2 2 3 4 4 5 5 5 5 6 6 5 6 5 6 6 8 8 9 11 12 13 12 12 14 14 13 13 14 15 15 15 13 12 11 12 12 11 9 9 10 12
10 9 7 8 8 7 7 7 5 5 4 4 4 4 3 3 3 4 4 4 3 3 3 2 2 1 1 1 0 1 1 2 1 2 3 2 4 5 5 5 6 6 7 7 7 7 7 8 8 9 10 10 11 12 12 12 11 11 13 14 13 13 14 15 15 15 15 11 10 9 8 8 9 10
8 10 9 8 8 9 8 8 8 7 7 7 6 4 4 3 4 4 4 4 4 3 2 2 1 1 1 1 1 1 2 1 1 2 2 2 4 4 5 5 6 6 6 7 7 8 8 8 8 7 8 8 8 9 9 9 11 12 13 13 13 13 12 12 11 12 13 14 14 11 7 8 8 8
9 10 10 9 9 9 10 9 9 9 8 7 5 5 5 4 5 5 5 4 3 3 3 2 2 1 1 2 2 1 2 2 2 2 2 2 3 4 5 5 6 7 7 7 8 8 9 8 8 8 8 7 7 5 8 10 12 13 12 12 13 13 14 13 14 14 14 12 12 12 10 9 9 11
9 9 9 8 9 9 10 9 6 6 7 6 6 6 6 6 6 5 4 4 4 3 3 2 2 2 2 1 1 1 2 2 2 2 2 4 5 5 5 5 6 6 7 7 7 8 8 9 9 10 10 10 9 9 6 14 14 11 12 13 13 14 14 15 15 14 14 11 9 9 11 7 8 8
8 7 4 4 6 7 6 4 5 6 6 7 7 7 6 6 5 3 4 1 1 2 1 1 2 2 2 1 1 0 1 2 2 3 3 4 5 5 5 6 6 6 7 7 7 7 8 8 9 9 10 10 11 11 10 9 11 17 12 12 13 13 15 15 13 13 13 13 12 9 9 9 8 9
6 7 7 6 6 7 7 7 7 6 6 5 5 5 5 5 5 5 4 4 4 4 4 3 3 1 1 1 0 1 2 2 2 3 3 4 5 5 6 6 6 7 7 7 8 8 8 8 9 10 11 11 12 12 13 12 10 10 16 12 13 15 14 15 15 13 12 12 11 8 7 6 5 2
7 8 9 8 7 7 8 7 7 6 5 5 5 5 5 5 5 4 4 4 3 3 3 2 2 1 0 0 1 0 1 2 2 3 4 3 4 5 6 6 6 6 7 7 8 7 8 8 9 10 11 11 11 11 11 11 10 10 8 11 9 13 14 12 14 14 12 11 7 5 6 5 7 12
8 7 8 9 9 8 7 7 8 7 7 6 5 4 4 4 5 5 4 3 3 2 2 2 1 2 2 0 2 1 1 1 3 3 4 3 4 4 5 6 5 6 6 7 8 7 8 8 9 10 10 10 10 10 9 8 9 9 10 7 6 7 10 11 12 12 10 9 7 5 5 5 4 3
8 8 7 6 7 7 8 7 8 8 8 6 5 2 2 3 4 4 4 3 4 4 3 3 2 3 1 1 0 2 2 2 3 3 3 4 4 4 4 6 5 5 6 6 7 7 8 8 5 3 7 8 8 8 8 10 11 12 13 12 11 7 6 11 11 10 9 9 9 7 6 3 4 5
7 7 6 5 5 6 6 7 7 8 8 7 7 6 4 3 2 3 3 2 2 2 2 4 3 3 2 1 1 1 2 2 3 3 4 4 5 4 3 4 6 5 6 6 6 6 6 7 6 7 7 7 7 8 10 11 12 12 12 12 12 10 8 7 12 14 12 10 8 7 5 3 3 4
7 7 7 6 6 6 6 6 6 6 6 5 5 4 5 5 5 6 5 5 4 4 4 3 2 1 0 0 1 2 2 2 4 4 5 4 5 5 6 5 6 6 6 5 6 5 6 7 7 7 7 7 8 8 10 11 11 10 10 11 12 10 9 8 10 12 18 22 19 9 4 3 3 3
8 9 8 7 7 7 6 5 5 5 5 5 5 4 3 4 5 4 3 4 5 4 3 2 2 1 1 0 2 2 2 4 5 4 5 6 6 6 7 6 6 7 6 5 6 7 7 7 8 8 7 8 8 8 9 9 10 10 10 10 10 11 11 10 11 13 15 19 21 20 19 11 8 9
8 8 8 7 7 6 6 6 5 5 5 4 3 3 3 2 3 3 3 2 2 2 3 3 2 2 2 1 2 3 3 3 6 5 6 6 7 7 7 7 7 7 8 7 7 8 8 8 6 6 6 7 9 9 9 10 9 10 9 10 11 10 10 10 11 12 12 12 19 20 23 23 21 19
Wind_Direction
235 227 223 232 236 242 245 253 249 251 275 272 265 262 271 276 282 290 298 295 302 309 275 262 141 153 184 192 201 199 229 229 201 236 236 241 250 216 208 216 219 222 224 228 229 231 230 233 234 235 235 233 233 233 234 234 234 235 236 238 239 240 241 239 235 233 226 226 223 220 223 223 221 219
235 242 235 224 231 223 232 228 239 233 226 237 236 241 239 240 258 281 289 295 293 286 256 249 155 170 187 202 216 234 248 162 206 243 250 250 249 243 209 214 219 223 226 229 231 232 232 232 233 235 235 235 233 235 235 235 235 235 235 236 237 237 238 239 235 232 229 225 219 221 222 221 220 218
231 235 239 238 242 240 240 247 239 224 215 231 236 241 238 236 244 261 272 283 279 291 308 313 329 157 188 252 270 258 250 200 206 243 251 248 251 257 228 215 221 225 228 232 234 236 237 237 237 236 236 236 236 236 235 235 235 236 236 235 235 235 236 236 234 231 228 226 217 219 220 220 218 216
225 225 231 230 236 233 234 237 238 231 222 228 228 227 227 225 231 235 248 261 274 275 288 294 277 255 253 229 245 259 262 241 190 247 251 255 252 242 252 221 217 224 229 233 236 237 238 239 239 240 240 240 239 238 237 236 236 236 236 235 234 233 234 234 234 231 228 224 210 215 217 221 218 214
229 229 231 234 233 233 236 236 238 235 221 219 227 226 224 228 220 221 232 253 270 272 269 274 280 289 291 274 250 258 261 263 242 223 246 251 254 256 256 260 213 215 223 229 234 237 237 238 238 239 240 240 241 240 240 239 238 237 236 235 233 232 231 232 232 231 227 225 222 210 209 217 218 213
234 227 231 235 233 227 234 237 235 236 236 222 223 217 222 230 226 214 233 244 267 279 272 266 272 277 263 266 251 255 264 272 274 267 258 253 252 257 266 261 263 202 216 222 230 233 235 235 235 236 237 238 239 239 240 240 239 239 238 236 233 231 229 229 229 229 225 223 220 217 211 212 213 213
229 232 234 235 232 231 229 229 237 240 239 242 241 238 229 229 237 228 221 241 259 272 274 273 273 269 264 263 272 263 262 264 263 265 267 269 269 263 255 262 273 228 206 220 225 231 233 233 234 234 235 237 238 239 241 241 240 239 239 238 235 231 229 227 227 226 225 222 220 217 209 212 213 211
229 233 236 241 240 234 232 232 236 235 234 235 232 235 235 235 238 240 232 228 248 262 275 268 268 274 275 270 264 260 254 259 260 263 270 265 265 268 270 267 261 259 228 218 226 231 233 234 234 235 236 237 237 239 241 242 242 242 241 239 235 232 230 228 224 224 223 221 220 217 213 212 213 213
237 236 239 241 240 235 234 231 232 234 230 228 231 230 229 231 230 230 231 233 235 249 261 270 262 265 262 264 263 257 261 264 262 257 256 261 263 264 266 269 266 263 247 229 229 233 236 238 239 239 239 238 240 243 244 244 244 244 243 240 235 233 231 229 225 223 222 221 218 216 213 211 211 211
231 235 235 238 240 237 232 234 232 234 233 229 231 234 235 234 232 232 234 234 240 250 262 272 279 267 267 266 256 253 246 252 264 267 265 259 254 253 254 255 262 271 273 267 238 233 239 243 245 246 243 242 244 245 246 246 246 246 245 241 236 234 233 230 226 222 220 219 217 215 213 210 209 209
231 231 233 235 236 236 234 235 234 231 231 232 236 235 237 236 237 239 238 247 256 261 265 269 271 277 274 269 276 266 265 266 259 267 275 273 264 250 246 255 253 256 263 259 258 266 276 278 271 241 234 242 243 244 245 246 246 247 244 239 233 232 232 231 227 223 220 218 216 214 211 208 207 207
236 233 234 236 233 233 233 233 234 231 231 232 236 237 236 233 237 245 245 246 251 255 261 263 272 276 280 280 276 279 280 283 276 261 260 271 276 268 252 251 265 267 264 271 279 279 267 258 253 258 254 235 238 241 244 245 246 245 243 237 233 231 231 230 226 222 220 218 215 213 210 206 205 205
233 238 240 239 239 234 229 230 235 240 244 236 239 240 238 242 243 248 250 249 250 255 258 263 263 266 268 268 275 277 280 273 287 305 295 278 267 266 276 266 246 257 267 272 276 278 275 276 277 279 276 248 229 237 234 247 243 241 238 234 234 233 232 229 226 222 219 217 215 212 208 204 203 204
235 234 239 242 241 238 228 215 215 221 226 237 250 257 250 246 249 248 252 255 256 254 255 257 261 266 269 273 271 278 278 281 274 285 289 271 268 292 278 271 228 232 254 277 283 274 263 272 280 271 268 268 249 261 241 235 234 227 220 225 228 231 231 229 224 221 219 217 214 211 206 204 204 204
237 239 237 244 236 219 219 221 216 218 218 222 228 239 250 258 259 260 258 257 254 257 257 257 260 263 269 272 281 278 272 287 27 15 301 272 295 284 283 283 76 168 256 268 285 284 274 266 268 269 261 259 258 255 253 246 225 226 221 218 224 227 227 226 224 221 219 216 214 210 205 204 204 203
234 236 239 238 238 235 233 235 218 216 220 222 223 228 233 236 244 248 254 260 262 258 263 263 264 269 268 275 276 276 278 72 68 330 301 284 273 274 275 294 304 275 144 304 295 287 274 266 268 276 267 259 257 253 253 249 237 228 227 225 225 227 228 227 223 220 217 215 214 210 205 204 203 202
232 233 234 238 237 240 221 226 239 244 224 212 221 223 226 234 235 237 241 247 251 263 266 267 268 264 271 273 274 284 314 12 120 167 274 269 263 265 283 284 283 291 320 294 290 289 290 281 275 276 271 262 265 266 248 237 238 236 233 231 229 230 230 228 226 222 217 213 213 211 207 204 202 201
231 230 232 232 234 234 233 232 234 236 241 243 214 212 219 229 229 226 232 234 238 242 252 263 268 269 274 276 284 295 302 306 115 174 241 255 263 273 269 281 285 285 279 279 287 289 283 277 277 275 277 275 268 261 261 253 236 231 232 233 229 228 230 230 226 222 217 213 211 208 208 205 203 200
236 234 231 233 237 237 235 234 230 235 239 240 248 250 251 245 251 235 216 215 223 225 229 237 247 265 269 273 276 281 301 85 114 200 239 256 281 281 283 281 272 274 265 258 269 268 276 284 276 274 283 287 282 283 274 249 240 234 231 231 229 228 231 231 229 223 216 214 209 208 208 206 204 201
234 234 235 236 236 237 239 232 217 227 241 253 257 260 258 260 257 257 250 240 222 232 228 222 239 263 266 288 296 298 318 119 135 248 267 282 272 278 286 285 286 280 281 251 257 273 283 284 282 289 293 292 286 289 287 282 247 233 234 233 228 227 232 232 231 225 217 212 208 205 205 206 206 203
234 233 232 234 238 238 238 231 206 208 217 246 255 260 266 267 269 274 272 211 212 226 237 248 254 257 250 245 257 274 300 115 152 226 257 271 270 280 277 280 286 281 287 281 257 269 280 284 285 289 294 295 293 291 287 286 283 241 233 232 229 226 228 235 233 229 219 212 209 204 203 204 206 205
235 233 229 234 238 241 241 230 201 202 195 235 248 258 266 266 267 269 268 273 227 203 226 237 241 246 249 248 253 265 255 130 181 194 220 243 249 255 262 271 282 287 285 282 288 284 278 293 293 294 297 295 289 294 299 304 293 273 221 220 225 222 225 231 235 234 222 215 208 205 202 201 200 200
233 236 228 221 229 237 243 235 211 197 195 235 248 253 261 266 269 268 276 274 274 271 244 225 219 242 241 236 235 232 225 154 209 206 214 235 237 250 258 268 284 295 289 287 284 279 289 292 291 299 299 294 294 297 299 300 302 303 308 286 217 218 224 226 232 230 227 218 210 206 202 199 189 195
230 233 237 220 209 223 234 240 229 203 198 226 244 251 257 265 267 271 265 275 304 302 294 300 302 307 308 295 281 291 118 155 207 222 215 221 228 242 262 274 278 281 286 287 290 292 293 292 291 294 294 301 301 305 300 296 294 299 302 295 298 225 207 227 229 231 227 219 214 209 201 191 184 197
235 233 231 244 201 204 219 227 231 226 207 219 240 247 257 260 281 330 290 294 307 293 293 288 279 280 285 296 303 287 130 169 200 227 229 233 227 242 261 275 276 281 281 288 260 279 292 297 295 298 294 293 292 298 301 302 300 301 298 294 293 293 274 214 220 225 217 219 215 208 198 190 190 198
234 235 238 241 199 190 208 219 225 229 220 216 227 245 254 265 284 306 292 291 285 278 281 286 291 294 301 306 285 313 284 261 182 226 228 228 254 259 272 286 297 297 294 312 327 300 298 293 294 298 298 299 297 301 303 300 302 301 301 301 299 298 294 288 245 232 218 202 209 204 202 195 194 202
236 236 238 241 199 179 199 208 217 223 218 199 225 236 243 255 301 299 265 271 273 271 276 284 291 298 279 277 304 311 338 332 13 293 279 287 275 271 276 282 283 285 293 301 305 302 296 291 300 299 299 299 295 296 295 301 307 311 304 303 307 306 300 299 284 264 260 243 207 195 200 196 199 203
239 240 239 244 180 172 184 199 206 217 194 213 215 220 241 248 237 252 255 247 249 264 277 284 277 271 281 288 312 26 345 317 310 277 275 259 261 271 279 287 292 289 295 299 300 299 295 292 292 293 294 298 301 299 301 300 299 307 308 309 309 304 299 292 286 281 253 255 250 190 186 197 208 207
247 62 74 81 108 145 154 170 171 178 200 226 249 167 168 194 220 213 235 240 199 210 226 235 254 268 229 84 44 12 306 281 259 259 272 288 280 277 284 283 278 279 284 278 279 280 282 289 295 302 300 296 293 296 298 298 303 303 307 312 305 311 307 292 286 281 279 259 224 219 192 193 195 203
67 83 87 92 106 118 131 155 205 232 129 124 136 155 186 211 218 207 208 199 209 235 236 243 231 104 54 49 35 270 260 264 307 332 316 302 275 286 279 282 282 272 275 289 297 309 315 313 306 302 299 296 294 295 296 302 304 305 308 304 305 305 293 299 299 293 288 279 252 229 229 210 191 186
190 108 153 98 73 81 89 69 76 93 120 132 155 167 200 195 183 202 222 230 228 211 211 199 164 86 7 52 229 242 241 234 4 349 326 307 312 303 301 294 291 306 320 320 319 334 322 318 318 311 306 302 298 295 299 301 298 302 305 307 309 307 308 307 301 295 290 284 277 261 228 203 206 187
224 199 103 135 161 145 169 185 214 195 186 190 180 180 190 200 192 52 56 51 113 124 140 84 144 167 223 222 1 283 24 21 27 359 334 325 317 317 314 307 322 326 327 335 335 338 309 326 324 320 315 313 310 309 307 301 303 305 305 312 314 311 311 307 309 301 298 296 285 271 223 200 205 212
203 203 210 226 221 219 222 216 205 185 177 176 188 190 182 166 169 184 192 176 151 151 176 163 199 160 216 95 294 18 37 33 11 21 331 312 319 316 317 322 331 338 334 334 337 333 341 335 335 328 324 319 316 314 317 321 327 332 339 344 340 337 336 335 332 326 319 293 276 273 232 212 208 216
190 204 215 216 211 209 212 208 199 192 194 191 190 169 149 175 175 179 180 165 145 145 153 167 184 100 241 93 17 29 18 36 31 72 321 331 326 324 333 334 345 344 333 329 336 340 338 336 335 329 326 321 317 321 330 344 344 340 342 336 338 329 326 321 319 321 317 311 296 276 237 226 213 216
200 207 207 211 210 209 213 207 207 203 196 190 169 151 171 181 172 182 165 153 155 175 161 160 148 146 74 63 30 8 29 352 1 34 9 5 348 348 344 344 348 342 337 336 341 345 339 341 340 339 335 336 338 346 53 37 342 350 347 348 339 332 328 329 324 320 315 301 296 279 264 241 212 218
192 203 203 204 209 207 208 205 197 181 182 162 160 163 171 168 169 167 149 150 190 178 174 165 144 123 106 101 55 347 36 327 28 3 13 13 7 353 350 352 344 339 339 342 342 345 345 343 350 349 346 347 347 345 359 69 58 13 6 347 340 332 329 325 319 313 310 305 290 287 280 254 220 214
179 182 142 190 208 201 194 149 139 162 159 159 166 171 164 148 143 125 107 188 194 170 125 178 143 151 121 114 163 133 14 356 24 9 10 16 11 1 354 354 346 341 340 347 343 351 348 353 358 357 352 350 349 346 345 352 71 62 26 353 339 337 333 326 320 319 319 315 311 295 274 257 230 217
141 117 141 156 155 164 171 173 152 154 154 152 144 137 137 134 131 132 149 183 174 169 175 187 127 183 130 105 324 45 1 22 359 19 14 23 12 9 2 351 344 348 343 344 353 356 357 360 3 1 357 354 345 344 339 346 340 38 61 28 355 342 339 335 330 325 320 319 315 341 349 334 329 268
131 143 164 157 149 148 157 156 149 127 124 126 138 141 143 140 138 153 191 190 169 160 146 153 158 105 200 138 280 348 24 359 5 19 11 18 22 4 2 349 338 351 338 349 354 1 2 1 6 1 357 353 346 339 335 332 349 351 50 62 13 354 349 338 333 331 330 332 348 12 30 38 55 84
135 132 137 140 150 150 143 141 139 141 132 132 131 136 145 160 167 175 170 150 159 190 163 119 98 205 202 132 309 293 68 16 8 19 5 1 17 352 2 340 325 336 338 348 352 0 1 4 10 1 348 345 343 336 324 342 349 358 350 28 38 13 2 346 343 342 338 342 332 354 15 19 76 90
128 126 128 130 134 138 137 137 136 136 135 127 118 145 171 175 191 174 161 144 151 171 174 162 184 232 112 247 27 330 2 4 12 7 360 348 0 354 338 307 331 347 339 346 350 353 360 358 42 261 319 353 355 333 355 356 355 352 357 359 10 21 25 19 6 360 357 341 349 6 14 44 116 125
107 101 109 120 121 121 121 121 124 127 131 145 154 154 145 157 76 64 104 96 188 209 201 177 181 216 171 220 350 330 341 359 354 358 348 340 346 347 347 343 350 342 340 344 347 349 347 341 358 4 356 1 354 354 7 360 355 357 359 357 1 13 32 30 23 25 24 12 350 352 360 46 103 132
113 112 109 105 107 107 104 104 108 117 125 142 140 141 163 164 156 178 183 163 191 200 198 182 204 198 204 272 6 317 322 354 352 338 342 342 341 333 337 345 346 333 330 339 339 337 347 339 355 353 4 7 354 2 6 360 357 359 358 1 3 2 9 32 56 41 28 22 13 354 330 335 291 203
124 121 116 110 106 107 110 111 110 113 123 126 132 167 179 163 163 174 179 164 193 200 198 198 201 222 245 249 301 300 307 358 342 321 324 323 324 327 327 330 329 335 327 340 335 343 349 340 353 353 357 3 345 356 6 360 358 2 1 360 4 3 13 15 25 35 36 29 18 26 24 42 79 80
120 116 113 115 111 98 93 98 100 98 97 108 119 119 132 148 144 160 161 181 195 188 219 228 228 223 236 267 294 312 4 303 267 298 311 312 322 319 326 323 328 330 328 338 331 331 342 336 355 350 346 0 349 344 349 8 360 355 360 2 5 5 12 19 23 34 35 44 24 35 49 44 49 71